Wind_Speed
16 16 16 15 15 15 15 15 16 15 15 15 15 15 15 15 15 15 15 15 15 14 14 14 13 13 12 12 12 11 10 10 9 9 8 8 7 7 7 6 6 6 6
17 17 17 17 17 17 17 17 17 17 17 17 17 17 17 17 17 16 16 16 16 16 15 15 15 14 13 13 13 13 12 11 10 10 10 10 9 9 8 8 7 7 7
18 18 18 18 18 18 18 18 19 18 18 18 18 18 19 18 18 18 17 18 18 18 17 16 17 16 15 15 15 15 14 13 12 12 11 11 11 10 10 9 9 9 8
19 19 20 19 19 19 20 20 20 20 20 20 20 20 20 20 19 19 19 19 19 19 19 18 18 18 17 16 16 16 15 15 14 13 13 13 12 12 12 11 10 10 9
21 21 21 21 21 21 21 21 22 22 22 22 22 22 21 21 21 21 21 21 21 21 20 19 20 19 19 18 17 17 17 17 16 15 15 14 14 13 13 13 12 11 11
22 22 22 22 23 22 22 23 23 24 24 24 24 24 24 23 23 23 23 23 22 22 22 22 21 21 20 19 19 19 19 19 18 17 17 16 16 15 15 14 13 13 12
24 24 24 24 24 25 24 25 25 25 25 25 25 25 25 25 25 24 25 25 25 24 24 24 23 23 22 22 21 21 21 20 20 19 19 18 17 17 17 16 15 15 14
25 25 25 26 26 27 26 26 26 26 26 26 26 26 26 26 26 26 26 26 26 26 26 25 25 24 24 23 23 23 22 22 22 21 21 20 19 19 19 18 17 17 16
27 27 27 27 28 28 28 28 28 28 28 28 28 28 28 28 28 28 28 27 28 28 28 27 27 27 26 25 25 25 24 24 24 23 22 22 22 21 21 20 19 18 18
29 29 29 29 29 29 30 30 30 30 30 30 31 31 30 30 30 30 30 30 30 30 29 29 29 29 29 28 27 26 26 25 25 24 24 23 23 23 22 22 20 20 20
31 31 32 32 32 32 32 32 32 32 32 32 33 33 33 32 32 32 32 32 32 31 31 31 30 30 30 30 29 28 27 27 26 26 25 25 25 24 24 24 23 22 21
33 33 34 34 34 34 34 34 34 34 34 34 34 34 35 35 34 34 34 34 33 33 33 32 32 32 32 32 31 30 29 29 29 28 28 27 27 26 26 25 25 24 23
34 34 35 35 35 36 36 35 35 35 35 35 36 36 36 37 36 36 36 36 35 35 35 34 34 33 33 33 32 32 32 31 31 30 30 29 29 29 28 27 26 26 26
35 35 36 36 36 36 36 36 36 36 37 37 37 38 38 39 38 38 38 37 37 37 36 35 35 35 35 35 34 34 33 33 32 32 31 31 31 30 30 29 28 28 28
36 36 37 37 38 38 38 38 38 38 38 38 38 39 39 39 40 39 40 39 38 38 38 37 37 37 37 37 36 35 35 35 34 34 33 33 33 32 32 31 30 30 29
38 39 39 39 39 39 40 40 40 40 40 40 40 40 40 40 40 40 40 40 40 40 40 39 39 39 39 39 38 38 37 37 36 36 35 35 35 35 34 33 33 32 31
40 40 41 41 41 41 41 41 41 41 41 42 41 41 41 41 41 41 41 41 41 41 42 41 41 41 41 41 40 40 40 39 39 38 38 37 37 37 37 36 35 34 33
41 41 41 42 42 42 42 43 43 43 43 43 43 43 43 43 43 43 44 43 43 43 43 43 42 42 42 42 42 42 42 42 42 41 40 40 39 39 38 38 37 37 36
42 42 43 43 43 43 43 43 44 45 45 44 44 44 45 45 45 45 45 45 45 45 44 44 44 44 43 43 44 44 44 43 44 44 43 42 41 41 40 40 39 39 38
43 43 43 44 44 44 45 45 45 46 46 45 45 45 46 46 47 46 46 46 46 46 46 46 45 45 45 45 45 45 45 45 45 46 46 45 44 43 43 42 41 41 40
43 43 44 44 44 45 45 45 45 46 46 46 46 47 47 47 48 48 48 48 47 48 48 47 46 47 46 46 46 46 46 46 47 47 47 47 47 45 44 44 44 43 42
43 43 44 44 44 44 45 45 45 46 46 46 46 46 46 46 48 49 49 49 49 49 49 49 48 48 47 47 47 48 48 47 47 47 47 47 47 47 46 46 46 46 45
44 44 45 45 45 45 45 46 46 46 47 47 47 46 47 47 48 49 50 49 49 49 50 50 50 50 49 49 49 48 48 48 47 48 48 48 48 47 46 47 47 46 46
45 45 46 46 46 46 46 46 47 47 47 48 48 47 48 48 48 49 50 50 50 51 51 52 52 51 51 50 50 49 49 49 49 49 49 49 49 49 48 48 48 48 47
45 46 46 47 47 47 47 47 47 47 48 48 48 48 48 48 48 50 50 51 51 52 52 53 53 53 52 51 51 51 51 50 50 50 50 50 50 50 50 49 49 49 48
46 46 46 47 47 47 47 48 47 48 48 48 48 48 48 48 49 50 50 51 51 51 52 53 54 53 53 53 53 53 52 52 51 51 52 52 51 51 51 51 50 49 49
Wind_Direction
247 247 246 246 247 246 245 244 243 242 242 243 241 241 242 243 242 241 240 240 240 237 234 235 233 232 232 231 231 231 232 230 227 226 227 228 227 226 227 226 224 221 221
249 248 247 248 248 246 246 246 245 245 246 246 244 244 244 243 244 245 243 244 243 241 238 237 236 234 234 234 234 234 234 233 228 229 231 230 229 229 229 228 228 226 223
249 248 249 249 249 248 247 248 248 249 249 249 247 246 246 246 245 245 246 246 245 243 241 240 239 236 235 237 237 237 236 234 232 231 232 231 230 230 230 231 232 232 230
249 249 250 249 250 249 249 249 250 250 250 250 250 250 249 248 247 246 246 246 246 245 244 243 241 239 237 236 237 237 238 236 234 231 232 232 231 231 231 232 234 234 235
250 251 250 250 250 251 251 251 252 252 251 251 250 250 250 248 248 248 247 246 245 245 245 243 242 241 239 238 238 237 237 238 236 233 233 234 233 233 233 234 235 234 235
252 252 252 251 252 252 252 252 253 253 253 252 251 250 250 249 249 248 248 247 246 245 245 243 242 242 241 240 239 238 237 238 237 236 235 235 235 234 234 235 236 237 236
253 253 253 252 253 253 254 253 253 255 255 253 252 251 250 250 250 249 248 247 246 246 246 244 243 242 242 242 242 241 239 239 239 239 238 237 237 236 236 236 237 239 238
253 253 253 254 254 255 255 255 255 254 254 254 252 251 250 250 250 250 249 247 247 247 247 246 245 244 242 242 242 242 241 240 240 240 240 238 237 237 237 239 239 239 240
254 254 254 255 256 256 256 256 255 255 254 254 253 254 253 252 252 251 250 249 248 248 248 248 247 244 243 242 242 243 243 243 241 241 241 239 238 238 238 239 240 240 240
255 255 255 256 256 257 257 256 255 255 255 254 254 255 255 254 253 252 251 250 249 249 248 248 247 246 244 243 243 243 244 244 243 241 241 240 239 239 240 239 241 242 242
257 257 257 257 257 258 258 258 256 256 256 255 255 254 254 253 252 251 251 250 250 250 249 248 247 247 245 243 242 243 244 244 245 242 241 242 241 241 241 241 241 243 243
259 259 259 259 259 259 259 258 257 256 256 256 256 255 255 254 253 252 252 251 251 251 249 248 247 247 246 244 242 243 245 244 245 243 243 243 242 242 242 242 243 242 243
260 260 260 260 260 260 260 259 258 257 256 256 256 256 255 255 254 253 253 253 252 251 250 249 248 248 248 245 244 244 246 246 245 245 245 244 243 243 243 243 244 243 243
262 262 261 261 260 260 260 259 258 258 257 257 257 257 257 256 255 254 254 253 253 252 251 250 250 249 249 247 245 245 246 247 246 245 245 246 245 244 244 244 244 244 245
263 263 262 262 261 260 260 259 258 258 258 257 257 257 257 256 255 254 254 253 252 252 251 250 250 249 249 248 247 246 246 247 246 245 245 246 246 245 244 244 244 245 246
264 264 263 262 261 261 260 258 258 258 258 257 257 256 256 256 254 253 253 252 252 251 251 252 251 250 250 249 248 248 247 247 247 246 245 246 246 246 245 245 245 245 245
264 264 263 262 261 260 259 258 257 257 257 258 257 256 255 254 254 254 253 253 252 251 251 251 252 251 250 249 249 249 248 247 247 247 247 247 247 248 247 247 247 246 245
264 264 263 262 262 261 259 258 257 257 256 257 256 256 256 255 254 254 253 253 253 252 251 251 251 251 250 250 250 249 249 248 247 246 247 247 248 248 248 248 248 247 246
263 263 263 262 262 261 260 258 258 258 257 256 255 255 256 255 254 254 253 253 253 252 251 251 251 251 251 251 250 250 249 248 248 248 247 247 247 248 248 248 247 246 246
264 263 263 263 262 262 260 259 259 258 257 256 255 255 256 255 254 253 252 252 252 251 251 251 251 251 251 251 250 250 249 248 248 248 248 248 248 247 247 247 247 246 245
264 264 264 264 262 261 260 259 259 257 257 256 256 256 256 256 254 253 253 252 252 251 251 251 251 251 251 251 251 250 250 249 248 248 248 248 248 247 247 247 246 245 245
264 264 263 263 262 262 260 259 258 258 257 257 257 257 257 256 255 254 253 253 253 252 251 250 250 251 251 251 251 250 250 249 249 247 247 247 248 247 247 247 246 246 244
264 264 263 262 262 261 261 259 258 257 257 257 257 257 257 256 255 254 253 253 252 252 250 250 250 251 251 251 251 250 250 249 248 247 247 247 248 248 248 248 247 245 244
264 264 263 262 261 261 261 260 258 258 258 258 258 258 257 257 256 255 253 252 252 251 250 250 250 250 251 251 251 250 250 250 249 248 247 247 248 248 249 248 247 246 244
264 264 263 262 261 260 260 260 258 258 258 259 259 259 259 258 256 255 255 254 252 251 251 250 250 250 250 250 250 250 250 250 250 249 248 247 248 248 248 248 248 247 246
265 264 263 262 261 261 261 259 259 258 258 259 260 260 259 258 257 256 256 254 253 252 250 250 250 250 250 250 249 250 250 250 250 249 248 248 248 248 248 248 248 247 246
Height
5832 5833 5833 5834 5835 5835 5836 5836 5837 5838 5838 5839 5840 5840 5841 5841 5842 5842 5843 5843 5844 5845 5845 5846 5846 5847 5847 5848 5848 5849 5849 5850 5851 5851 5852 5852 5853 5853 5854 5855 5855 5855 5855
5829 5830 5830 5831 5831 5832 5833 5833 5834 5834 5835 5836 5837 5837 5838 5838 5839 5839 5840 5840 5841 5842 5842 5843 5843 5844 5845 5845 5846 5847 5847 5848 5849 5849 5850 5851 5852 5852 5853 5853 5854 5854 5854
5826 5826 5827 5827 5828 5828 5829 5830 5830 5831 5832 5832 5833 5834 5834 5835 5835 5836 5837 5837 5838 5839 5839 5840 5840 5841 5842 5843 5844 5844 5845 5846 5847 5847 5848 5849 5850 5851 5851 5852 5852 5853 5853
5822 5822 5823 5823 5824 5824 5825 5826 5826 5827 5828 5828 5829 5830 5830 5831 5832 5832 5833 5833 5834 5835 5836 5836 5837 5838 5839 5840 5841 5842 5842 5843 5844 5845 5846 5847 5848 5849 5849 5850 5851 5851 5852
5818 5818 5819 5819 5820 5820 5821 5821 5822 5822 5823 5824 5825 5825 5826 5827 5827 5828 5829 5829 5830 5831 5832 5832 5833 5834 5835 5836 5838 5839 5839 5841 5842 5842 5843 5844 5845 5846 5847 5848 5849 5849 5850
5813 5813 5814 5815 5815 5815 5816 5816 5817 5818 5818 5819 5820 5820 5821 5822 5822 5823 5824 5825 5826 5827 5827 5828 5829 5830 5831 5833 5834 5835 5836 5837 5838 5839 5841 5842 5843 5844 5845 5846 5847 5847 5848
5808 5808 5809 5810 5810 5810 5811 5811 5812 5812 5813 5813 5814 5815 5815 5816 5817 5818 5819 5820 5821 5822 5823 5823 5824 5826 5827 5829 5830 5831 5832 5834 5835 5836 5837 5839 5840 5841 5842 5843 5844 5845 5845
5802 5803 5803 5804 5804 5805 5805 5806 5806 5807 5807 5808 5808 5809 5810 5810 5811 5812 5813 5814 5815 5816 5817 5818 5819 5821 5822 5824 5826 5827 5828 5830 5831 5832 5834 5835 5836 5837 5838 5840 5841 5842 5843
5796 5797 5797 5798 5798 5799 5799 5800 5800 5801 5801 5801 5802 5802 5803 5804 5805 5806 5807 5808 5809 5810 5811 5813 5814 5816 5817 5819 5821 5822 5824 5825 5827 5828 5829 5831 5832 5834 5835 5836 5837 5838 5839
5790 5791 5791 5791 5791 5792 5792 5793 5793 5794 5794 5795 5795 5796 5797 5797 5798 5799 5800 5801 5802 5804 5805 5806 5808 5809 5811 5813 5815 5817 5819 5820 5822 5823 5825 5827 5828 5830 5831 5832 5833 5835 5836
5783 5784 5784 5784 5784 5785 5785 5785 5786 5786 5787 5788 5788 5789 5789 5790 5791 5792 5793 5794 5795 5797 5798 5800 5801 5803 5805 5807 5809 5811 5813 5815 5816 5818 5820 5822 5823 5825 5826 5828 5829 5831 5832
5776 5776 5776 5777 5777 5777 5777 5777 5778 5778 5779 5780 5780 5781 5782 5782 5783 5784 5785 5786 5788 5789 5791 5792 5794 5796 5798 5800 5803 5805 5807 5809 5811 5812 5814 5816 5818 5820 5821 5823 5825 5826 5827
5768 5768 5768 5768 5768 5768 5769 5769 5769 5770 5771 5771 5772 5773 5773 5774 5775 5776 5777 5779 5780 5781 5783 5785 5787 5789 5791 5793 5795 5798 5800 5802 5805 5807 5809 5811 5812 5814 5816 5818 5819 5821 5822
5759 5759 5759 5759 5759 5759 5760 5760 5761 5761 5762 5762 5763 5764 5765 5765 5766 5767 5769 5770 5772 5773 5775 5777 5779 5781 5783 5785 5788 5790 5793 5795 5797 5800 5802 5804 5806 5808 5810 5812 5814 5815 5817
5750 5750 5750 5749 5750 5750 5750 5751 5751 5752 5752 5753 5754 5755 5755 5756 5757 5758 5760 5761 5763 5765 5766 5768 5770 5773 5775 5777 5780 5782 5785 5787 5790 5792 5795 5797 5799 5801 5804 5806 5808 5809 5811
5740 5740 5740 5739 5739 5740 5740 5740 5741 5742 5742 5743 5744 5745 5746 5747 5748 5749 5750 5752 5754 5756 5758 5759 5761 5764 5766 5769 5771 5774 5776 5779 5782 5784 5787 5789 5792 5794 5797 5799 5801 5803 5805
5729 5729 5729 5729 5729 5729 5729 5730 5730 5731 5732 5732 5733 5734 5735 5737 5738 5740 5741 5743 5744 5746 5748 5750 5752 5754 5757 5759 5762 5765 5767 5770 5773 5776 5778 5781 5784 5786 5789 5791 5793 5796 5798
5718 5718 5718 5718 5718 5718 5718 5719 5719 5720 5720 5721 5722 5724 5725 5726 5728 5729 5731 5732 5734 5736 5738 5740 5743 5745 5747 5750 5752 5755 5758 5761 5764 5766 5769 5772 5775 5777 5780 5783 5785 5788 5790
5707 5707 5707 5707 5707 5707 5707 5708 5708 5708 5709 5710 5711 5712 5714 5715 5716 5718 5720 5721 5723 5725 5727 5730 5732 5735 5737 5740 5742 5745 5748 5751 5754 5757 5760 5762 5765 5768 5771 5774 5776 5779 5782
5696 5695 5695 5695 5695 5695 5695 5695 5696 5696 5697 5698 5700 5701 5702 5703 5705 5706 5708 5710 5711 5714 5716 5719 5721 5724 5727 5729 5731 5734 5737 5740 5743 5746 5749 5752 5755 5758 5761 5764 5767 5770 5773
5684 5684 5683 5683 5683 5683 5683 5683 5684 5684 5685 5686 5687 5689 5690 5691 5692 5694 5696 5698 5700 5702 5705 5707 5710 5713 5715 5718 5721 5723 5726 5729 5732 5735 5738 5741 5744 5747 5750 5754 5757 5760 5763
5673 5672 5671 5671 5670 5670 5670 5671 5672 5672 5673 5674 5675 5677 5678 5679 5680 5682 5684 5686 5688 5690 5693 5696 5698 5701 5704 5706 5709 5712 5715 5718 5720 5723 5726 5729 5733 5736 5740 5743 5746 5749 5753
5660 5660 5659 5659 5658 5658 5658 5659 5659 5660 5661 5662 5664 5665 5666 5667 5668 5670 5672 5674 5676 5678 5681 5683 5686 5689 5692 5694 5697 5700 5703 5706 5709 5712 5715 5718 5722 5725 5728 5731 5735 5738 5742
5647 5647 5647 5646 5646 5646 5646 5646 5647 5648 5649 5650 5652 5652 5653 5654 5655 5657 5658 5661 5663 5665 5668 5671 5674 5677 5679 5682 5684 5687 5691 5694 5697 5701 5704 5707 5710 5713 5717 5720 5723 5727 5730
5634 5634 5634 5633 5633 5633 5634 5634 5635 5636 5637 5638 5639 5640 5641 5642 5643 5644 5646 5648 5650 5652 5655 5658 5661 5664 5667 5669 5672 5675 5678 5682 5685 5688 5692 5695 5698 5702 5705 5709 5712 5716 5719
5621 5621 5621 5620 5620 5621 5621 5621 5622 5623 5624 5625 5626 5627 5628 5629 5630 5631 5633 5634 5637 5639 5642 5645 5647 5650 5653 5656 5659 5662 5666 5669 5672 5675 5679 5683 5686 5690 5693 5697 5700 5704 5708